Location: Moscow
(38.3171°N, 79.0889°W)
Time: 22:05:09
(UTC+00:00)

Cosmos 1441 Rocket - Pass Details

Date: 07 November 2025
Orbit: 424 x 447 km, 81.1° (Epoch: 14 December)

Event Time Altitude Azimuth Distance (km) Brightness Sun altitude
Rises 23:13:31 0° 359° (N) 2,391 6.5 -12.8°
Maximum altitude 23:18:46 37° 78° (ENE) 678 3.3 -13.8°
Drops below altitude 10° 23:21:52 10° 148° (SSE) 1,517 5.3 -14.4°
Sets 23:24:00 0° 156° (SSE) 2,382 6.4 -14.8°
